Погода в Сызрани

Погода в Сызрани : погода сейчас, прогноз погоды и архив. Всё, что Вы хотите узнать о погоде в Сызрани!

Хотите узнать прогноз погоды в Сызрани? Тогда Вам сюда: Погода в Сызрани

Поиск расширенной информации на нашем сайте:

Полезная информация: Актуальная информация горящие туры в Турцию, цены на путевки в Турцию здесь. - Poisk-toura.com

Другие новости

Новости СМИ2

Главная страница сайта

Новости сайта

03.07.2017

Напоминаем, что на нашем специализированном сайте Метеоцентр.Азия вы можете получить высокодетализированные автоматические прогнозы погоды по пунктам России, СНГ и мира в авиационном формате (включающие направление и скорость ветра, видимость, явления погоды, количество и форму облачности, нижнюю и верхнюю границу облачности).

Рекомендуем: Оплата тура онлайн купить тур онлайн. - Guru-tour.ru

Погода в Сызрани - сегодня

Время (UTC), дата Ветер
(°,м/с) 
Видим.   Явления Облачность Т
(°С)
Тd
(°С)
f(%) Тe
(°С)
Pmin
(гПа)
dP
(гПа)
Po
(мм)
O2
(г/м3)
Тmin Tmax R s Состояние
почвы
00 19.11.17 190 (Ю) 17000 м    8/3 1000 м средняя 
[Sc|Ac trans]
-0.2 -0.7 96 -1  1025.6  759  306           
03 19.11.17 170 (Ю) 18000 м    9/4 1000 м средняя 
[Sc|Ac trans]
+0 -0.5 96 -1  1024.9  -0.7  759  306  -1         
06 19.11.17 160 (Ю) 20000 м    10/10 330 м 
[St]
+0.1 -0 99 -1  1024.9  -0.6  759  306           
09 19.11.17 150 (ЮВ) 20000 м    8/3 600 м средняя, верхняя 
[Sc|Ac trans|Ci fib]
+2 -0.5 83 +1  1024  -0.8  758  303           
12 19.11.17 150 (ЮВ) 20000 м    10/10 360 м 
[St]
+0.2 -0.4 96 -2  1023  -1  757  305           
15 19.11.17 150 (ЮВ) 15000 м    10/10 300 м 
[St]
-0 -0.5 96 -2  1022.3  -0.7  757  305    +2.6       
18 19.11.17 150 (ЮВ) 17000 м    10/10 360 м 
[St]
+0.1 -0.4 96 -2  1020.8  -1.5  756  304           
21 19.11.17 150 (ЮВ) 18000 м    10/10 360 м 
[St]
+0.4 -0 97 -1  1020.7  -0.1  756  304           
00 20.11.17 160 (Ю) 0500 м  туман  ясно 
+0.8 +0.9 100 -1  1019.8  -0.9  755  303           
03 20.11.17 160 (Ю) 10 км  слаб. дождь{морось}  10/10 270 м 
[Frnb|Ns]
+1.2 +1.4 100 1018.7  -1.1  754  302  -0    0.6     
06 20.11.17 150 (ЮВ) 4000 м  дымка{дождь, морось}  10/10 210 м 
[St]
+1.8 +1.9 100 1018.7  0.1  754  302           
09 20.11.17 160 (Ю) 4000 м  слаб. морось  10/10 210 м 
[St]
+2.2 +2.4 100 +1  1019  0.3  755  301           
12 20.11.17 150 (ЮВ) 10 км  {морось}  10/10 540 м 
[Sc]
+3.1 +2.3 94 +3  1018.5  -0.4  754  300           
15 20.11.17 150 (ЮВ) 14000 м    9/9 800 м 
[Sc]
+3.6 +1.6 87 +2  1018.5  0.1  754  300    +3.7  0.0     
18 20.11.17 130 (ЮВ) 12000 м    10/10 360 м 
[St]
+1.4 +0.6 94 1017.9  -0.7  754  302           
21 20.11.17 120 (ЮВ) 18000 м    ясно 
+0.1 -0.4 96 -1  1016.5  -1.5  753  303           
00 21.11.17 120 (ЮВ) 18000 м    ясно 
-0.1 -0.5 97 -1  1014.6  -1.9  751  303           
03 21.11.17 130 (ЮВ) 19000 м    ясно 
-0.2 -1.2 93 -2  1013.5  -1.1  750  303  -0.6         
06 21.11.17 130 (ЮВ) 20000 м    8/0 средняя, верхняя 
[Ac trans|Ci fib]
+0.1 -1.8 87 -2  1012.5  -1  750  302           
09 21.11.17 140 (ЮВ) 20000 м    6/0 средняя, верхняя 
[Ac cast|Ci fib]
+2.5 -1.1 77 +1  1011.3  -1.1  749  299           
12 21.11.17 120 (ЮВ) 20000 м    6/0 верхняя 
[Ci fib]
+2.9 -0.8 77 +2  1010.1  -1.2  748  298           
15 21.11.17 120 (ЮВ) 20000 м    ясно 
+1.7 -1.1 82 1009.9  -0.2  748  300    +3.6       
18 21.11.17 120 (ЮВ) 18000 м    ясно 
+0.1 -1.6 88 +1  1009.1  -0.8  747  301           
21 21.11.17 120 (ЮВ) 18000 м    ясно 
-0.5 -1.5 93 1008.4  -0.7  747  302           
00 22.11.17 080 (В) 9000 м  дымка  ясно 
-2.3 -2.4 99 -2  1007.6  -0.9  746  303           
Время (UTC), дата Ветер
(°,м/с) 
Видим.   Явления Облачность Т
(°С)
Тd
(°С)
f(%) Тe
(°С)
Pmin
(гПа)
dP
(гПа)
Po
(мм)
O2
(г/м3)
Тmin Tmax R s Состояние
почвы

Для получения пояснительной информации подведите курсор к названию столбца.

ПОГОДА в Сызрани - архив

Всё, что Вы хотите узнать о погоде в Сызрани - удобно и подробно!

Выберите нужную дату (начиная с 1 января 2015* года) и нажмите кнопку "Найти".
Будут отображены архивные сводки погоды по пункту Сызрань, начиная с указанной даты.


Отображать данные в формате CSV (для использования в таблицах Excel)


Внимание! Наш архив погоды предназначен исключительно для личного некоммерческого использования в познавательных целях. Если Вам необходимы официальные справки о состоянии погоды (для производственных, юридических, коммерческих и т.п. целей), обращайтесь в органы Росгидромета.

*Примечание: данная дата относится к архиву по метеостанциям СССР (Россия, СНГ, Балтия).
Архив по метеостанциям Зарубежной Европы и Азии (кроме Китая) хранится 10 дней, по другим регионам земного шара (Китай, Африка, Америка, Австралия, Океания) - 1 день.

Сызрань - район местоположения метеостанции


Название, широта, долгота, высота метеостанции:
Сызрань 53.2°ш. 48.4°д. 103 м над ур. моря [Российская Федерация]

Дополнительная информация

В oтличие oт бoльшинства пoгoдных сайтoв мы публикуем пoдрoбную метеoинфoрмацию в детальнoм прoфессиoнальнoм фoрмате.

Характеристики температуры и влажнoсти вoздуха измеряются на высoте 2 м в тени вдали oт зданий и деревьев.
Скoрoсть ветра измеряется на высoте 10 м (на урoвне рoста челoвека скoрoсть ветра ниже в 1.5-2 раза). Если метеoстанция нахoдится в гoрoде или в лесу, тo скoрoсть ветра занижена на 2-4 м/с пo сравнению с oткрытым местoм. Скoрoсть ветра над акватoриями крупных рек и oзёр, а также на вершинах хoлмoв на 2-5 м/с выше, чем в oбычных услoвиях.
Атмoсфернoе давление в разных тoчках местнoсти мoжет значительнo oтличаться oт давления на метеoстанции, в зависимoсти oт услoвий рельефа (при пoдъёме на 10 м давление пoнижается примернo на 1 мм рт.ст.).